Time,TemperatureF,DewpointF,PressureIn,WindDirection,WindDirectionDegrees,WindSpeedMPH,WindSpeedGustMPH,Humidity,HourlyPrecipIn,Conditions,Clouds,dailyrainin,SoftwareType,DateUTC
2013-05-05 00:01:00,53.5,47.5,29.85,SW,225,1.6,5.4,80,0.00,,,0.00,Rainwise IP-100,2013-05-05 07:01:00,
2013-05-05 00:06:00,53.5,47.5,29.85,WSW,247,0.0,6.1,80,0.00,,,0.00,Rainwise IP-100,2013-05-05 07:06:00,
2013-05-05 00:11:00,53.4,47.5,29.86,SSE,157,0.0,4.4,80,0.00,,,0.00,Rainwise IP-100,2013-05-05 07:11:00,
2013-05-05 00:16:00,53.3,47.5,29.86,WNW,292,0.0,2.1,81,0.00,,,0.00,Rainwise IP-100,2013-05-05 07:16:00,
2013-05-05 00:21:00,53.2,47.0,29.86,SSE,157,1.9,4.9,81,0.00,,,0.00,Rainwise IP-100,2013-05-05 07:21:00,
2013-05-05 00:26:00,53.4,47.5,29.85,SSE,157,3.5,6.3,81,0.00,,,0.00,Rainwise IP-100,2013-05-05 07:26:00,
2013-05-05 00:31:00,53.5,47.5,29.86,SSW,202,3.0,5.6,81,0.00,,,0.00,Rainwise IP-100,2013-05-05 07:31:00,
2013-05-05 00:36:00,53.5,47.5,29.86,WSW,247,1.4,5.6,81,0.00,,,0.00,Rainwise IP-100,2013-05-05 07:36:00,
2013-05-05 00:41:00,53.3,47.5,29.86,South,180,4.0,7.2,81,0.00,,,0.00,Rainwise IP-100,2013-05-05 07:41:00,
2013-05-05 00:46:00,53.2,47.0,29.86,SSE,157,7.0,9.3,81,0.00,,,0.00,Rainwise IP-100,2013-05-05 07:46:00,
2013-05-05 00:51:00,53.2,47.0,29.85,SSE,157,7.5,8.4,81,0.00,,,0.00,Rainwise IP-100,2013-05-05 07:51:00,
2013-05-05 00:56:00,53.2,47.0,29.86,SSE,157,5.6,9.1,81,0.00,,,0.00,Rainwise IP-100,2013-05-05 07:56:00,
2013-05-05 01:01:00,53.3,47.5,29.86,SE,135,8.2,8.6,81,0.00,,,0.00,Rainwise IP-100,2013-05-05 08:01:00,
2013-05-05 01:06:00,53.5,47.5,29.86,SE,135,4.7,10.5,80,0.00,,,0.00,Rainwise IP-100,2013-05-05 08:06:00,
2013-05-05 01:11:00,53.6,47.5,29.86,WSW,247,4.9,9.1,80,0.00,,,0.00,Rainwise IP-100,2013-05-05 08:11:00,
2013-05-05 01:16:00,53.5,47.5,29.86,SSE,157,4.0,8.4,80,0.00,,,0.00,Rainwise IP-100,2013-05-05 08:16:00,
2013-05-05 01:21:00,53.6,47.0,29.86,WSW,247,4.2,12.4,79,0.00,,,0.00,Rainwise IP-100,2013-05-05 08:21:00,
2013-05-05 01:26:00,53.6,47.0,29.86,South,180,6.8,12.1,79,0.00,,,0.00,Rainwise IP-100,2013-05-05 08:26:00,
2013-05-05 01:31:00,53.6,47.0,29.86,SE,135,5.6,12.4,79,0.00,,,0.00,Rainwise IP-100,2013-05-05 08:31:00,
2013-05-05 01:36:00,53.8,47.5,29.86,SSW,202,7.0,14.5,78,0.00,,,0.00,Rainwise IP-100,2013-05-05 08:36:00,
2013-05-05 01:41:00,53.8,47.5,29.86,SW,225,13.1,13.1,78,0.00,,,0.00,Rainwise IP-100,2013-05-05 08:41:00,
2013-05-05 01:46:00,53.9,47.5,29.86,SSE,157,1.9,13.8,78,0.00,,,0.00,Rainwise IP-100,2013-05-05 08:46:00,
2013-05-05 01:51:00,53.9,47.5,29.87,SSW,202,1.6,12.4,78,0.00,,,0.00,Rainwise IP-100,2013-05-05 08:51:00,
2013-05-05 01:56:00,53.8,47.5,29.87,NW,315,3.7,15.2,78,0.00,,,0.00,Rainwise IP-100,2013-05-05 08:56:00,
2013-05-05 02:01:00,53.7,47.0,29.86,SSW,202,2.1,17.7,78,0.00,,,0.00,Rainwise IP-100,2013-05-05 09:01:00,
2013-05-05 02:06:00,53.7,47.0,29.86,SW,225,5.6,12.1,78,0.00,,,0.00,Rainwise IP-100,2013-05-05 09:06:00,
2013-05-05 02:11:00,53.7,47.0,29.87,SSE,157,6.5,11.7,79,0.00,,,0.00,Rainwise IP-100,2013-05-05 09:11:00,
2013-05-05 02:16:00,53.6,47.0,29.87,SSW,202,4.7,7.9,79,0.00,,,0.00,Rainwise IP-100,2013-05-05 09:16:00,
2013-05-05 02:21:00,53.7,47.0,29.86,South,180,4.0,16.3,79,0.00,,,0.00,Rainwise IP-100,2013-05-05 09:21:00,
2013-05-05 02:26:00,53.7,47.0,29.86,SSE,157,8.9,12.4,79,0.00,,,0.00,Rainwise IP-100,2013-05-05 09:26:00,
2013-05-05 02:31:00,53.7,47.0,29.86,SSE,157,8.4,11.0,79,0.00,,,0.00,Rainwise IP-100,2013-05-05 09:31:00,
2013-05-05 02:36:00,53.7,47.5,29.86,SE,135,1.9,10.0,80,0.00,,,0.00,Rainwise IP-100,2013-05-05 09:36:00,
2013-05-05 02:41:00,53.8,48.0,29.86,East,90,4.0,12.4,80,0.00,,,0.00,Rainwise IP-100,2013-05-05 09:41:00,
2013-05-05 02:46:00,53.8,47.5,29.86,South,180,5.8,17.3,79,0.00,,,0.00,Rainwise IP-100,2013-05-05 09:46:00,
2013-05-05 02:51:00,54.0,47.5,29.86,ESE,112,5.6,13.1,79,0.00,,,0.00,Rainwise IP-100,2013-05-05 09:51:00,
2013-05-05 02:56:00,54.0,47.5,29.86,SW,225,6.3,10.7,79,0.00,,,0.00,Rainwise IP-100,2013-05-05 09:56:00,
2013-05-05 03:01:00,53.9,47.5,29.86,SE,135,6.3,13.1,79,0.00,,,0.00,Rainwise IP-100,2013-05-05 10:01:00,
2013-05-05 03:06:00,54.0,47.5,29.86,SE,135,5.6,14.0,79,0.00,,,0.00,Rainwise IP-100,2013-05-05 10:06:00,
2013-05-05 03:11:00,54.1,47.5,29.86,South,180,8.9,24.7,78,0.00,,,0.00,Rainwise IP-100,2013-05-05 10:11:00,
2013-05-05 03:16:00,54.3,48.0,29.86,SSE,157,6.5,19.8,78,0.00,,,0.00,Rainwise IP-100,2013-05-05 10:16:00,
2013-05-05 03:21:00,54.4,48.0,29.86,SE,135,5.1,21.2,78,0.00,,,0.00,Rainwise IP-100,2013-05-05 10:21:00,
2013-05-05 03:26:00,54.5,48.0,29.86,SSE,157,4.4,18.4,78,0.00,,,0.00,Rainwise IP-100,2013-05-05 10:26:00,
2013-05-05 03:31:00,54.5,47.5,29.86,South,180,5.4,21.9,77,0.00,,,0.00,Rainwise IP-100,2013-05-05 10:31:00,
2013-05-05 03:36:00,54.6,47.5,29.86,ESE,112,2.3,15.6,77,0.00,,,0.00,Rainwise IP-100,2013-05-05 10:36:00,
2013-05-05 03:41:00,54.8,48.0,29.87,SE,135,4.2,11.9,77,0.00,,,0.00,Rainwise IP-100,2013-05-05 10:41:00,
2013-05-05 03:46:00,54.8,48.0,29.87,SE,135,6.1,11.7,77,0.00,,,0.00,Rainwise IP-100,2013-05-05 10:46:00,
2013-05-05 03:51:00,54.9,47.5,29.87,ESE,112,4.9,16.8,76,0.00,,,0.00,Rainwise IP-100,2013-05-05 10:51:00,
2013-05-05 03:56:00,55.0,47.5,29.86,SE,135,8.6,10.0,76,0.00,,,0.00,Rainwise IP-100,2013-05-05 10:56:00,
2013-05-05 04:01:00,55.0,47.5,29.86,SSE,157,6.8,20.3,76,0.00,,,0.00,Rainwise IP-100,2013-05-05 11:01:00,
2013-05-05 04:06:00,55.0,47.5,29.87,SSE,157,5.1,17.0,76,0.00,,,0.00,Rainwise IP-100,2013-05-05 11:06:00,
2013-05-05 04:11:00,55.1,47.5,29.86,SSE,157,9.8,16.3,76,0.00,,,0.00,Rainwise IP-100,2013-05-05 11:11:00,
2013-05-05 04:15:00,55.2,47.5,29.86,SSE,157,9.1,15.9,76,0.00,,,0.00,Rainwise IP-100,2013-05-05 11:15:00,
2013-05-05 04:20:00,55.2,47.5,29.86,SE,135,14.2,14.2,76,0.00,,,0.00,Rainwise IP-100,2013-05-05 11:20:00,
2013-05-05 04:25:00,55.3,47.5,29.87,SSE,157,10.3,17.7,76,0.00,,,0.00,Rainwise IP-100,2013-05-05 11:25:00,
2013-05-05 04:30:00,55.3,47.5,29.87,SSE,157,10.7,17.0,75,0.00,,,0.00,Rainwise IP-100,2013-05-05 11:30:00,
2013-05-05 04:35:00,55.4,47.5,29.87,SSE,157,6.3,14.9,75,0.00,,,0.00,Rainwise IP-100,2013-05-05 11:35:00,
2013-05-05 04:38:00,55.4,47.5,29.87,SSE,157,7.0,11.7,75,0.00,,,0.00,Rainwise IP-100,2013-05-05 11:38:00,
2013-05-05 04:43:00,55.4,47.5,29.87,SSE,157,4.2,17.7,75,0.00,,,0.00,Rainwise IP-100,2013-05-05 11:43:00,
2013-05-05 04:48:00,55.4,47.5,29.87,ESE,112,6.3,15.9,75,0.00,,,0.00,Rainwise IP-100,2013-05-05 11:48:00,
2013-05-05 04:53:00,55.4,47.5,29.87,South,180,10.0,16.3,75,0.00,,,0.00,Rainwise IP-100,2013-05-05 11:53:00,
2013-05-05 04:58:00,55.5,47.5,29.87,SSE,157,6.5,20.5,74,0.00,,,0.00,Rainwise IP-100,2013-05-05 11:58:00,
2013-05-05 05:03:00,55.5,47.5,29.87,SSW,202,14.7,21.0,74,0.00,,,0.00,Rainwise IP-100,2013-05-05 12:03:00,
2013-05-05 05:08:00,55.6,47.5,29.87,SSE,157,12.4,24.2,74,0.00,,,0.00,Rainwise IP-100,2013-05-05 12:08:00,
2013-05-05 05:13:00,55.7,47.5,29.87,SSE,157,9.1,16.3,74,0.00,,,0.00,Rainwise IP-100,2013-05-05 12:13:00,
2013-05-05 05:18:00,55.8,47.5,29.87,SE,135,5.8,17.3,74,0.00,,,0.00,Rainwise IP-100,2013-05-05 12:18:00,
2013-05-05 05:23:00,55.7,47.5,29.87,SSE,157,11.2,18.2,73,0.00,,,0.00,Rainwise IP-100,2013-05-05 12:23:00,
2013-05-05 05:28:00,55.8,47.5,29.87,SSE,157,7.5,18.9,73,0.00,,,0.00,Rainwise IP-100,2013-05-05 12:28:00,
2013-05-05 05:33:00,55.9,47.5,29.87,SE,135,4.0,16.3,73,0.00,,,0.00,Rainwise IP-100,2013-05-05 12:33:00,
2013-05-05 05:38:00,55.9,47.5,29.87,SSE,157,10.5,16.3,73,0.00,,,0.00,Rainwise IP-100,2013-05-05 12:38:00,
2013-05-05 05:43:00,55.9,47.5,29.87,ESE,112,4.2,18.0,73,0.00,,,0.00,Rainwise IP-100,2013-05-05 12:43:00,
2013-05-05 05:48:00,55.9,47.5,29.87,SSW,202,6.3,17.7,73,0.00,,,0.00,Rainwise IP-100,2013-05-05 12:48:00,
2013-05-05 05:53:00,55.9,47.5,29.87,SW,225,3.0,13.8,73,0.00,,,0.00,Rainwise IP-100,2013-05-05 12:53:00,
2013-05-05 05:58:00,55.8,47.5,29.88,SE,135,2.8,15.4,73,0.00,,,0.00,Rainwise IP-100,2013-05-05 12:58:00,
2013-05-05 06:03:00,55.8,47.5,29.88,SE,135,15.2,19.4,73,0.00,,,0.00,Rainwise IP-100,2013-05-05 13:03:00,
2013-05-05 06:08:00,55.9,47.5,29.89,SE,135,4.7,16.3,73,0.00,,,0.00,Rainwise IP-100,2013-05-05 13:08:00,
2013-05-05 06:13:00,55.9,47.5,29.88,SE,135,4.2,15.4,73,0.00,,,0.00,Rainwise IP-100,2013-05-05 13:13:00,
2013-05-05 06:18:00,55.9,47.5,29.89,WSW,247,6.1,11.4,73,0.00,,,0.00,Rainwise IP-100,2013-05-05 13:18:00,
2013-05-05 06:23:00,55.8,47.5,29.89,SSE,157,3.3,15.9,74,0.00,,,0.00,Rainwise IP-100,2013-05-05 13:23:00,
2013-05-05 06:28:00,55.8,47.5,29.89,SE,135,7.2,18.7,74,0.00,,,0.00,Rainwise IP-100,2013-05-05 13:28:00,
2013-05-05 06:33:00,55.9,47.5,29.89,SSE,157,2.1,14.7,74,0.00,,,0.00,Rainwise IP-100,2013-05-05 13:33:00,
2013-05-05 06:38:00,55.9,47.5,29.89,SSE,157,8.6,12.8,74,0.00,,,0.00,Rainwise IP-100,2013-05-05 13:38:00,
2013-05-05 06:43:00,55.9,47.5,29.89,SE,135,7.5,11.4,74,0.00,,,0.00,Rainwise IP-100,2013-05-05 13:43:00,
2013-05-05 06:48:00,55.9,47.5,29.89,SSE,157,6.5,19.1,74,0.00,,,0.00,Rainwise IP-100,2013-05-05 13:48:00,
2013-05-05 06:53:00,55.9,47.5,29.90,SSE,157,6.3,13.1,74,0.00,,,0.00,Rainwise IP-100,2013-05-05 13:53:00,
2013-05-05 06:58:00,56.0,47.5,29.90,SE,135,8.6,12.8,74,0.00,,,0.00,Rainwise IP-100,2013-05-05 13:58:00,
2013-05-05 07:03:00,56.0,47.5,29.90,SSE,157,1.9,16.1,74,0.00,,,0.00,Rainwise IP-100,2013-05-05 14:03:00,
2013-05-05 07:08:00,56.0,47.5,29.91,South,180,14.0,14.0,74,0.00,,,0.00,Rainwise IP-100,2013-05-05 14:08:00,
2013-05-05 07:13:00,56.0,47.5,29.91,South,180,6.1,16.8,74,0.00,,,0.00,Rainwise IP-100,2013-05-05 14:13:00,
2013-05-05 07:18:00,56.1,47.5,29.90,ESE,112,2.6,16.8,74,0.00,,,0.00,Rainwise IP-100,2013-05-05 14:18:00,
2013-05-05 07:23:00,56.1,47.5,29.91,SSW,202,4.9,17.0,74,0.00,,,0.00,Rainwise IP-100,2013-05-05 14:23:00,
2013-05-05 07:28:00,56.1,47.5,29.90,ESE,112,4.9,15.4,74,0.00,,,0.00,Rainwise IP-100,2013-05-05 14:28:00,
2013-05-05 07:33:00,56.1,47.5,29.91,SSE,157,6.5,20.8,74,0.00,,,0.00,Rainwise IP-100,2013-05-05 14:33:00,
2013-05-05 07:38:00,56.1,47.5,29.91,SE,135,6.5,22.9,73,0.00,,,0.00,Rainwise IP-100,2013-05-05 14:38:00,
2013-05-05 07:43:00,56.2,47.5,29.91,South,180,6.5,13.8,73,0.00,,,0.00,Rainwise IP-100,2013-05-05 14:43:00,
2013-05-05 07:48:00,56.3,47.5,29.92,South,180,11.7,15.4,72,0.00,,,0.00,Rainwise IP-100,2013-05-05 14:48:00,
2013-05-05 07:53:00,56.3,47.5,29.91,SE,135,11.2,11.9,72,0.00,,,0.00,Rainwise IP-100,2013-05-05 14:53:00,
2013-05-05 07:58:00,56.4,47.5,29.91,SSE,157,10.3,18.4,72,0.00,,,0.00,Rainwise IP-100,2013-05-05 14:58:00,
2013-05-05 08:03:00,56.3,47.5,29.92,SE,135,11.2,17.7,72,0.00,,,0.00,Rainwise IP-100,2013-05-05 15:03:00,
2013-05-05 08:08:00,56.4,47.5,29.91,SSE,157,6.5,16.3,72,0.00,,,0.00,Rainwise IP-100,2013-05-05 15:08:00,
2013-05-05 08:13:00,56.6,47.5,29.91,SSE,157,7.2,19.1,71,0.00,,,0.00,Rainwise IP-100,2013-05-05 15:13:00,
2013-05-05 08:18:00,56.7,47.0,29.92,SE,135,7.5,21.0,70,0.00,,,0.00,Rainwise IP-100,2013-05-05 15:18:00,
2013-05-05 08:23:00,56.9,47.5,29.92,SE,135,7.9,19.8,70,0.00,,,0.00,Rainwise IP-100,2013-05-05 15:23:00,
2013-05-05 08:28:00,57.1,47.5,29.92,SW,225,7.0,20.3,70,0.00,,,0.00,Rainwise IP-100,2013-05-05 15:28:00,
2013-05-05 08:33:00,57.2,47.5,29.92,SSE,157,12.4,20.3,70,0.00,,,0.00,Rainwise IP-100,2013-05-05 15:33:00,
2013-05-05 08:38:00,57.2,47.5,29.92,SSE,157,4.7,14.0,70,0.00,,,0.00,Rainwise IP-100,2013-05-05 15:38:00,
2013-05-05 08:43:00,57.3,47.5,29.92,South,180,10.7,13.8,69,0.00,,,0.00,Rainwise IP-100,2013-05-05 15:43:00,
2013-05-05 08:48:00,57.4,47.5,29.92,SSE,157,14.7,16.6,69,0.00,,,0.00,Rainwise IP-100,2013-05-05 15:48:00,
2013-05-05 08:53:00,57.4,47.5,29.92,SSE,157,10.3,23.3,68,0.00,,,0.00,Rainwise IP-100,2013-05-05 15:53:00,
2013-05-05 08:58:00,57.4,47.5,29.92,ESE,112,8.4,16.3,68,0.00,,,0.00,Rainwise IP-100,2013-05-05 15:58:00,
2013-05-05 09:03:00,57.8,47.5,29.92,East,90,13.3,21.9,67,0.00,,,0.00,Rainwise IP-100,2013-05-05 16:03:00,
2013-05-05 09:08:00,58.2,47.0,29.92,SE,135,2.6,19.6,66,0.00,,,0.00,Rainwise IP-100,2013-05-05 16:08:00,
2013-05-05 09:13:00,58.6,47.5,29.92,West,270,2.3,15.2,65,0.00,,,0.00,Rainwise IP-100,2013-05-05 16:13:00,
2013-05-05 09:18:00,58.9,47.5,29.92,SSE,157,6.1,23.1,65,0.00,,,0.00,Rainwise IP-100,2013-05-05 16:18:00,
2013-05-05 09:23:00,58.8,47.5,29.93,SE,135,10.3,14.0,65,0.00,,,0.00,Rainwise IP-100,2013-05-05 16:23:00,
2013-05-05 09:28:00,58.9,47.5,29.93,SW,225,9.3,15.6,65,0.00,,,0.00,Rainwise IP-100,2013-05-05 16:28:00,
2013-05-05 09:33:00,59.2,47.5,29.92,SSE,157,17.7,24.5,65,0.00,,,0.00,Rainwise IP-100,2013-05-05 16:33:00,
2013-05-05 09:38:00,59.7,47.0,29.93,SE,135,5.6,19.4,63,0.00,,,0.00,Rainwise IP-100,2013-05-05 16:38:00,
2013-05-05 09:43:00,59.8,47.5,29.93,SE,135,10.7,20.1,63,0.00,,,0.00,Rainwise IP-100,2013-05-05 16:43:00,
2013-05-05 09:48:00,59.7,47.0,29.93,SSE,157,4.9,14.9,63,0.00,,,0.00,Rainwise IP-100,2013-05-05 16:48:00,
2013-05-05 09:53:00,59.5,47.5,29.93,South,180,10.3,16.6,64,0.00,,,0.00,Rainwise IP-100,2013-05-05 16:53:00,
2013-05-05 09:58:00,59.3,47.5,29.93,SSW,202,1.9,13.1,65,0.00,,,0.00,Rainwise IP-100,2013-05-05 16:58:00,
2013-05-05 10:03:00,59.2,47.5,29.94,SSE,157,3.3,13.3,65,0.00,,,0.00,Rainwise IP-100,2013-05-05 17:03:00,
2013-05-05 10:08:00,59.2,47.5,29.94,ESE,112,5.6,15.6,65,0.00,,,0.00,Rainwise IP-100,2013-05-05 17:08:00,
2013-05-05 10:13:00,59.1,47.5,29.94,South,180,10.3,14.7,65,0.00,,,0.00,Rainwise IP-100,2013-05-05 17:13:00,
2013-05-05 10:18:00,58.8,48.0,29.94,SE,135,6.3,15.6,67,0.00,,,0.00,Rainwise IP-100,2013-05-05 17:18:00,
2013-05-05 10:23:00,58.6,48.0,29.94,South,180,2.6,10.0,68,0.00,,,0.00,Rainwise IP-100,2013-05-05 17:23:00,
2013-05-05 10:28:00,58.7,48.0,29.95,ESE,112,3.0,11.4,68,0.00,,,0.00,Rainwise IP-100,2013-05-05 17:28:00,
2013-05-05 10:33:00,58.9,48.0,29.95,ESE,112,7.2,17.0,68,0.00,,,0.00,Rainwise IP-100,2013-05-05 17:33:00,
2013-05-05 10:38:00,59.0,47.5,29.96,SSE,157,15.4,15.4,66,0.00,,,0.00,Rainwise IP-100,2013-05-05 17:38:00,
2013-05-05 10:43:00,59.0,47.5,29.96,SE,135,8.4,16.3,65,0.00,,,0.00,Rainwise IP-100,2013-05-05 17:43:00,
2013-05-05 10:48:00,59.0,47.5,29.96,SSE,157,14.7,14.7,65,0.00,,,0.00,Rainwise IP-100,2013-05-05 17:48:00,
2013-05-05 10:53:00,59.0,47.5,29.96,SE,135,4.9,15.6,65,0.00,,,0.00,Rainwise IP-100,2013-05-05 17:53:00,
2013-05-05 10:58:00,58.9,47.5,29.96,SSE,157,4.9,15.4,65,0.00,,,0.00,Rainwise IP-100,2013-05-05 17:58:00,
2013-05-05 11:03:00,58.8,47.5,29.96,ESE,112,6.8,10.0,66,0.00,,,0.00,Rainwise IP-100,2013-05-05 18:03:00,
2013-05-05 11:08:00,58.6,47.5,29.96,SSE,157,2.3,12.4,66,0.00,,,0.00,Rainwise IP-100,2013-05-05 18:08:00,
2013-05-05 11:13:00,58.2,47.5,29.96,ESE,112,1.2,11.4,68,0.00,,,0.00,Rainwise IP-100,2013-05-05 18:13:00,
2013-05-05 11:18:00,57.9,48.0,29.96,SSW,202,4.2,16.1,70,0.00,,,0.00,Rainwise IP-100,2013-05-05 18:18:00,
2013-05-05 11:23:00,58.1,49.0,29.96,SSE,157,4.0,12.6,71,0.00,,,0.00,Rainwise IP-100,2013-05-05 18:23:00,
2013-05-05 11:28:00,58.5,50.0,29.96,ESE,112,6.8,8.6,72,0.00,,,0.00,Rainwise IP-100,2013-05-05 18:28:00,
2013-05-05 11:33:00,58.8,50.0,29.96,SSW,202,2.1,8.2,72,0.00,,,0.00,Rainwise IP-100,2013-05-05 18:33:00,
2013-05-05 11:38:00,59.1,50.0,29.97,SE,135,1.9,8.4,71,0.00,,,0.00,Rainwise IP-100,2013-05-05 18:38:00,
2013-05-05 11:43:00,58.9,50.0,29.96,SE,135,3.5,7.9,71,0.00,,,0.00,Rainwise IP-100,2013-05-05 18:43:00,
2013-05-05 11:48:00,58.9,50.0,29.96,South,180,1.2,7.7,72,0.00,,,0.00,Rainwise IP-100,2013-05-05 18:48:00,
2013-05-05 11:53:00,59.2,50.0,29.97,SW,225,1.6,7.0,71,0.00,,,0.00,Rainwise IP-100,2013-05-05 18:53:00,
2013-05-05 11:58:00,59.7,50.0,29.97,WSW,247,4.4,5.8,71,0.00,,,0.00,Rainwise IP-100,2013-05-05 18:58:00,
2013-05-05 12:03:00,59.9,50.0,29.96,SSW,202,7.7,8.2,70,0.00,,,0.00,Rainwise IP-100,2013-05-05 19:03:00,
2013-05-05 12:08:00,59.4,50.0,29.97,SSW,202,1.6,10.3,70,0.00,,,0.00,Rainwise IP-100,2013-05-05 19:08:00,
2013-05-05 12:13:00,59.1,50.0,29.96,WSW,247,6.8,8.9,72,0.00,,,0.00,Rainwise IP-100,2013-05-05 19:13:00,
2013-05-05 12:18:00,59.0,50.0,29.96,SSE,157,2.3,8.4,72,0.00,,,0.00,Rainwise IP-100,2013-05-05 19:18:00,
2013-05-05 12:23:00,59.2,50.0,29.96,SSW,202,3.5,5.1,72,0.00,,,0.00,Rainwise IP-100,2013-05-05 19:23:00,
2013-05-05 12:28:00,59.7,50.0,29.96,WSW,247,5.4,10.0,70,0.00,,,0.00,Rainwise IP-100,2013-05-05 19:28:00,
2013-05-05 12:33:00,59.9,50.0,29.96,SW,225,10.3,10.5,69,0.00,,,0.00,Rainwise IP-100,2013-05-05 19:33:00,
2013-05-05 12:38:00,59.7,49.0,29.94,SSW,202,10.7,14.7,69,0.00,,,0.00,Rainwise IP-100,2013-05-05 19:38:00,
2013-05-05 12:43:00,60.0,50.0,29.94,SSW,202,12.8,16.6,69,0.00,,,0.00,Rainwise IP-100,2013-05-05 19:43:00,
2013-05-05 12:48:00,60.6,50.0,29.94,SSW,202,7.2,18.0,68,0.00,,,0.00,Rainwise IP-100,2013-05-05 19:48:00,
2013-05-05 12:53:00,60.8,50.5,29.95,SSE,157,12.1,16.8,68,0.00,,,0.00,Rainwise IP-100,2013-05-05 19:53:00,
2013-05-05 12:58:00,61.3,50.5,29.95,SSE,157,5.1,14.7,67,0.00,,,0.00,Rainwise IP-100,2013-05-05 19:58:00,
2013-05-05 13:03:00,62.0,50.5,29.95,SSW,202,0.0,12.6,66,0.00,,,0.00,Rainwise IP-100,2013-05-05 20:03:00,
2013-05-05 13:08:00,62.4,50.0,29.95,SW,225,5.6,12.1,64,0.00,,,0.00,Rainwise IP-100,2013-05-05 20:08:00,
2013-05-05 13:13:00,62.2,50.0,29.94,SE,135,11.0,11.0,64,0.00,,,0.00,Rainwise IP-100,2013-05-05 20:13:00,
2013-05-05 13:18:00,62.3,50.0,29.94,SSE,157,7.9,14.5,64,0.00,,,0.00,Rainwise IP-100,2013-05-05 20:18:00,
2013-05-05 13:23:00,62.8,50.5,29.95,SSW,202,7.7,18.7,63,0.00,,,0.00,Rainwise IP-100,2013-05-05 20:23:00,
2013-05-05 13:28:00,62.8,50.5,29.94,SW,225,11.0,19.4,63,0.00,,,0.00,Rainwise IP-100,2013-05-05 20:28:00,
2013-05-05 13:33:00,62.7,50.0,29.94,East,90,10.5,16.3,63,0.00,,,0.00,Rainwise IP-100,2013-05-05 20:33:00,
2013-05-05 13:38:00,62.9,50.5,29.94,SSE,157,5.8,16.8,63,0.00,,,0.00,Rainwise IP-100,2013-05-05 20:38:00,
2013-05-05 13:43:00,63.2,50.0,29.94,ESE,112,2.8,16.1,62,0.00,,,0.00,Rainwise IP-100,2013-05-05 20:43:00,
2013-05-05 13:48:00,63.5,50.5,29.94,South,180,3.3,12.1,62,0.00,,,0.00,Rainwise IP-100,2013-05-05 20:48:00,
2013-05-05 13:53:00,63.7,50.0,29.94,WSW,247,4.7,14.2,61,0.00,,,0.00,Rainwise IP-100,2013-05-05 20:53:00,
2013-05-05 13:58:00,63.7,50.0,29.94,SW,225,8.9,14.0,61,0.00,,,0.00,Rainwise IP-100,2013-05-05 20:58:00,
2013-05-05 14:03:00,63.6,50.0,29.94,SE,135,2.1,14.0,61,0.00,,,0.00,Rainwise IP-100,2013-05-05 21:03:00,
2013-05-05 14:08:00,63.6,49.0,29.94,SE,135,4.0,8.4,60,0.00,,,0.00,Rainwise IP-100,2013-05-05 21:08:00,
2013-05-05 14:13:00,63.8,50.0,29.94,SSW,202,7.0,17.3,60,0.00,,,0.00,Rainwise IP-100,2013-05-05 21:13:00,
2013-05-05 14:18:00,63.6,50.0,29.94,SSE,157,7.5,17.3,61,0.00,,,0.00,Rainwise IP-100,2013-05-05 21:18:00,
2013-05-05 14:23:00,63.5,50.0,29.94,SSE,157,3.5,14.7,61,0.00,,,0.00,Rainwise IP-100,2013-05-05 21:23:00,
2013-05-05 14:28:00,63.4,50.0,29.95,ESE,112,4.7,14.0,61,0.00,,,0.00,Rainwise IP-100,2013-05-05 21:28:00,
2013-05-05 14:33:00,63.3,50.5,29.95,South,180,4.2,13.5,62,0.00,,,0.00,Rainwise IP-100,2013-05-05 21:33:00,
2013-05-05 14:38:00,63.2,50.0,29.94,WSW,247,2.1,10.3,62,0.00,,,0.00,Rainwise IP-100,2013-05-05 21:38:00,
2013-05-05 14:43:00,63.2,50.0,29.94,East,90,3.7,13.8,62,0.00,,,0.00,Rainwise IP-100,2013-05-05 21:43:00,
2013-05-05 14:48:00,63.4,49.0,29.94,SE,135,12.8,12.8,60,0.00,,,0.00,Rainwise IP-100,2013-05-05 21:48:00,
2013-05-05 14:53:00,63.6,49.0,29.94,SSE,157,6.1,14.0,59,0.00,,,0.00,Rainwise IP-100,2013-05-05 21:53:00,
2013-05-05 14:58:00,63.8,49.0,29.94,East,90,2.3,11.4,58,0.00,,,0.00,Rainwise IP-100,2013-05-05 21:58:00,
2013-05-05 15:03:00,63.8,49.0,29.94,SSE,157,4.4,14.7,58,0.00,,,0.00,Rainwise IP-100,2013-05-05 22:03:00,
2013-05-05 15:08:00,63.6,49.0,29.94,NE,45,1.4,15.2,59,0.00,,,0.00,Rainwise IP-100,2013-05-05 22:08:00,
2013-05-05 15:13:00,63.2,49.0,29.95,WSW,247,9.1,15.9,60,0.00,,,0.00,Rainwise IP-100,2013-05-05 22:13:00,
2013-05-05 15:18:00,62.9,49.0,29.95,SW,225,4.4,13.8,61,0.00,,,0.00,Rainwise IP-100,2013-05-05 22:18:00,
2013-05-05 15:23:00,63.0,49.0,29.95,SE,135,11.0,18.0,61,0.00,,,0.00,Rainwise IP-100,2013-05-05 22:23:00,
2013-05-05 15:28:00,63.2,49.0,29.94,SSW,202,4.4,13.5,60,0.00,,,0.00,Rainwise IP-100,2013-05-05 22:28:00,
2013-05-05 15:33:00,63.1,49.0,29.94,SE,135,7.7,14.9,60,0.00,,,0.00,Rainwise IP-100,2013-05-05 22:33:00,
2013-05-05 15:38:00,63.1,48.0,29.95,SSE,157,6.8,17.5,59,0.00,,,0.00,Rainwise IP-100,2013-05-05 22:38:00,
2013-05-05 15:43:00,63.0,48.0,29.95,SE,135,6.5,15.9,59,0.00,,,0.00,Rainwise IP-100,2013-05-05 22:43:00,
2013-05-05 15:48:00,62.9,48.0,29.95,SSE,157,8.6,13.8,59,0.00,,,0.00,Rainwise IP-100,2013-05-05 22:48:00,
2013-05-05 15:53:00,62.7,48.0,29.94,WNW,292,1.9,13.5,60,0.00,,,0.00,Rainwise IP-100,2013-05-05 22:53:00,
2013-05-05 15:58:00,62.4,49.0,29.95,SSE,157,9.1,11.4,61,0.00,,,0.00,Rainwise IP-100,2013-05-05 22:58:00,
2013-05-05 16:03:00,62.2,49.0,29.95,SSE,157,11.7,15.4,62,0.00,,,0.00,Rainwise IP-100,2013-05-05 23:03:00,
2013-05-05 16:08:00,62.2,48.0,29.96,ENE,67,2.1,15.4,61,0.00,,,0.00,Rainwise IP-100,2013-05-05 23:08:00,
2013-05-05 16:13:00,62.1,49.0,29.95,SSE,157,6.3,9.3,62,0.00,,,0.00,Rainwise IP-100,2013-05-05 23:13:00,
2013-05-05 16:18:00,62.1,49.0,29.96,East,90,5.1,9.6,62,0.00,,,0.00,Rainwise IP-100,2013-05-05 23:18:00,
2013-05-05 16:23:00,62.2,48.0,29.96,SSE,157,9.1,18.9,61,0.00,,,0.00,Rainwise IP-100,2013-05-05 23:23:00,
2013-05-05 16:28:00,62.3,48.0,29.96,WSW,247,4.0,17.0,60,0.00,,,0.00,Rainwise IP-100,2013-05-05 23:28:00,
2013-05-05 16:33:00,62.5,48.0,29.96,SSE,157,4.4,14.9,60,0.00,,,0.00,Rainwise IP-100,2013-05-05 23:33:00,
2013-05-05 16:38:00,62.5,48.0,29.95,SSW,202,9.3,14.7,60,0.00,,,0.00,Rainwise IP-100,2013-05-05 23:38:00,
2013-05-05 16:43:00,62.4,48.0,29.96,SE,135,4.2,14.7,60,0.00,,,0.00,Rainwise IP-100,2013-05-05 23:43:00,
2013-05-05 16:48:00,62.5,48.0,29.96,ESE,112,9.3,14.9,59,0.00,,,0.00,Rainwise IP-100,2013-05-05 23:48:00,
2013-05-05 16:53:00,62.6,48.0,29.96,South,180,13.1,15.4,59,0.00,,,0.00,Rainwise IP-100,2013-05-05 23:53:00,
2013-05-05 16:58:00,62.8,48.0,29.96,SSE,157,14.0,14.9,59,0.00,,,0.00,Rainwise IP-100,2013-05-05 23:58:00,
2013-05-05 17:03:00,63.0,48.0,29.96,SSE,157,4.4,14.0,58,0.00,,,0.00,Rainwise IP-100,2013-05-06 00:03:00,
2013-05-05 17:08:00,63.1,48.0,29.96,SE,135,10.0,15.6,58,0.00,,,0.00,Rainwise IP-100,2013-05-06 00:08:00,
2013-05-05 17:13:00,63.0,48.0,29.97,SSE,157,1.6,13.3,58,0.00,,,0.00,Rainwise IP-100,2013-05-06 00:13:00,
2013-05-05 17:18:00,63.2,48.0,29.97,SSE,157,5.1,10.3,58,0.00,,,0.00,Rainwise IP-100,2013-05-06 00:18:00,
2013-05-05 17:23:00,63.3,48.0,29.97,ENE,67,3.5,11.2,58,0.00,,,0.00,Rainwise IP-100,2013-05-06 00:23:00,
2013-05-05 17:28:00,63.3,48.0,29.96,SSW,202,4.9,12.4,58,0.00,,,0.00,Rainwise IP-100,2013-05-06 00:28:00,
2013-05-05 17:33:00,63.3,48.0,29.97,SE,135,7.2,11.4,58,0.00,,,0.00,Rainwise IP-100,2013-05-06 00:33:00,
2013-05-05 17:38:00,63.4,48.0,29.97,SSE,157,4.7,9.8,58,0.00,,,0.00,Rainwise IP-100,2013-05-06 00:38:00,
2013-05-05 17:43:00,63.5,48.0,29.96,ESE,112,2.8,8.2,58,0.00,,,0.00,Rainwise IP-100,2013-05-06 00:43:00,
2013-05-05 17:48:00,63.6,48.0,29.97,SSE,157,2.6,5.8,57,0.00,,,0.00,Rainwise IP-100,2013-05-06 00:48:00,
2013-05-05 17:53:00,64.0,48.0,29.96,SE,135,2.3,7.5,57,0.00,,,0.00,Rainwise IP-100,2013-05-06 00:53:00,
2013-05-05 17:58:00,64.5,48.0,29.96,South,180,2.6,6.3,56,0.00,,,0.00,Rainwise IP-100,2013-05-06 00:58:00,
2013-05-05 18:03:00,64.9,48.0,29.97,SSE,157,4.9,10.7,55,0.00,,,0.00,Rainwise IP-100,2013-05-06 01:03:00,
2013-05-05 18:08:00,65.0,47.5,29.97,SE,135,4.0,9.6,54,0.00,,,0.00,Rainwise IP-100,2013-05-06 01:08:00,
2013-05-05 18:13:00,64.7,47.5,29.96,SSE,157,4.4,11.4,54,0.00,,,0.00,Rainwise IP-100,2013-05-06 01:13:00,
2013-05-05 18:18:00,64.6,47.5,29.97,SE,135,8.6,11.4,54,0.00,,,0.00,Rainwise IP-100,2013-05-06 01:18:00,
2013-05-05 18:23:00,64.6,47.5,29.98,SSE,157,4.2,13.1,54,0.00,,,0.00,Rainwise IP-100,2013-05-06 01:23:00,
2013-05-05 18:28:00,64.4,48.0,29.97,South,180,4.7,10.3,55,0.00,,,0.00,Rainwise IP-100,2013-05-06 01:28:00,
2013-05-05 18:33:00,63.9,48.0,29.97,SE,135,4.7,12.8,57,0.00,,,0.00,Rainwise IP-100,2013-05-06 01:33:00,
2013-05-05 18:38:00,63.1,48.0,29.98,SSE,157,7.0,9.1,58,0.00,,,0.00,Rainwise IP-100,2013-05-06 01:38:00,
2013-05-05 18:43:00,62.7,48.0,29.98,ESE,112,3.0,7.5,59,0.00,,,0.00,Rainwise IP-100,2013-05-06 01:43:00,
2013-05-05 18:48:00,62.5,48.0,29.98,SE,135,6.3,10.7,60,0.00,,,0.00,Rainwise IP-100,2013-05-06 01:48:00,
2013-05-05 18:53:00,62.2,48.0,29.98,SSE,157,4.4,11.9,60,0.00,,,0.00,Rainwise IP-100,2013-05-06 01:53:00,
2013-05-05 18:58:00,61.9,48.0,29.98,SSE,157,5.4,14.5,61,0.00,,,0.00,Rainwise IP-100,2013-05-06 01:58:00,
2013-05-05 19:03:00,61.8,48.0,29.98,SSE,157,4.4,11.0,61,0.00,,,0.00,Rainwise IP-100,2013-05-06 02:03:00,
2013-05-05 19:08:00,61.8,48.0,29.99,SE,135,2.3,12.6,61,0.00,,,0.00,Rainwise IP-100,2013-05-06 02:08:00,
2013-05-05 19:13:00,61.8,48.0,29.99,ESE,112,4.4,9.3,61,0.00,,,0.00,Rainwise IP-100,2013-05-06 02:13:00,
2013-05-05 19:18:00,61.8,48.0,29.98,NE,45,0.0,9.6,61,0.00,,,0.00,Rainwise IP-100,2013-05-06 02:18:00,
2013-05-05 19:23:00,61.8,49.0,29.99,SE,135,1.9,6.3,62,0.00,,,0.00,Rainwise IP-100,2013-05-06 02:23:00,
2013-05-05 19:28:00,61.8,49.0,29.99,East,90,0.0,5.8,62,0.00,,,0.00,Rainwise IP-100,2013-05-06 02:28:00,
2013-05-05 19:33:00,61.8,49.0,29.98,SSE,157,3.7,8.4,62,0.00,,,0.00,Rainwise IP-100,2013-05-06 02:33:00,
2013-05-05 19:38:00,61.5,48.0,29.99,SSE,157,2.1,8.2,62,0.00,,,0.00,Rainwise IP-100,2013-05-06 02:38:00,
2013-05-05 19:43:00,61.2,47.5,29.99,SSE,157,7.5,11.2,62,0.00,,,0.00,Rainwise IP-100,2013-05-06 02:43:00,
2013-05-05 19:48:00,61.0,48.0,29.99,ESE,112,5.4,10.7,63,0.00,,,0.00,Rainwise IP-100,2013-05-06 02:48:00,
2013-05-05 19:53:00,60.7,48.0,30.00,SE,135,2.6,8.4,64,0.00,,,0.00,Rainwise IP-100,2013-05-06 02:53:00,
2013-05-05 19:58:00,60.5,48.0,29.99,SE,135,2.3,7.5,65,0.00,,,0.00,Rainwise IP-100,2013-05-06 02:58:00,
2013-05-05 20:03:00,60.2,48.0,30.00,SSE,157,2.6,10.0,65,0.00,,,0.00,Rainwise IP-100,2013-05-06 03:03:00,
2013-05-05 20:08:00,59.9,48.0,30.00,SSE,157,1.6,7.9,66,0.00,,,0.00,Rainwise IP-100,2013-05-06 03:08:00,
2013-05-05 20:13:00,59.9,49.0,30.00,SSE,157,6.3,6.3,67,0.00,,,0.00,Rainwise IP-100,2013-05-06 03:13:00,
2013-05-05 20:18:00,59.8,49.0,30.00,SW,225,1.2,6.3,67,0.00,,,0.00,Rainwise IP-100,2013-05-06 03:18:00,
2013-05-05 20:23:00,59.8,49.0,30.00,SSE,157,2.8,5.6,67,0.00,,,0.00,Rainwise IP-100,2013-05-06 03:23:00,
2013-05-05 20:28:00,59.8,49.0,30.00,East,90,2.3,6.1,67,0.00,,,0.00,Rainwise IP-100,2013-05-06 03:28:00,
2013-05-05 20:33:00,59.8,49.0,30.00,SW,225,3.3,7.2,67,0.00,,,0.00,Rainwise IP-100,2013-05-06 03:33:00,
2013-05-05 20:38:00,59.7,49.0,30.00,WSW,247,0.0,6.5,68,0.00,,,0.00,Rainwise IP-100,2013-05-06 03:38:00,
2013-05-05 20:43:00,59.5,49.0,30.00,WSW,247,3.5,3.7,68,0.00,,,0.00,Rainwise IP-100,2013-05-06 03:43:00,
2013-05-05 20:48:00,59.2,49.0,30.00,SW,225,3.5,7.9,69,0.00,,,0.00,Rainwise IP-100,2013-05-06 03:48:00,
2013-05-05 20:53:00,59.0,49.0,30.00,SW,225,3.0,6.3,70,0.00,,,0.00,Rainwise IP-100,2013-05-06 03:53:00,
2013-05-05 20:58:00,59.0,49.0,30.00,SW,225,1.4,4.9,70,0.00,,,0.00,Rainwise IP-100,2013-05-06 03:58:00,
2013-05-05 21:01:00,59.0,49.0,30.00,SE,135,2.6,4.9,70,0.00,,,0.00,Rainwise IP-100,2013-05-06 04:01:00,
2013-05-05 21:06:00,58.9,49.0,30.01,ESE,112,4.2,7.7,70,0.00,,,0.00,Rainwise IP-100,2013-05-06 04:06:00,
2013-05-05 21:11:00,58.7,49.0,30.01,ENE,67,1.9,4.2,70,0.00,,,0.00,Rainwise IP-100,2013-05-06 04:11:00,
2013-05-05 21:12:00,58.7,50.0,30.01,ENE,67,1.4,2.8,71,0.00,,,0.00,Rainwise IP-100,2013-05-06 04:12:00,
2013-05-05 21:14:00,58.7,50.0,30.01,SSE,157,1.6,3.7,71,0.00,,,0.00,Rainwise IP-100,2013-05-06 04:14:00,
2013-05-05 21:19:00,58.6,50.0,30.02,SE,135,0.0,6.1,71,0.00,,,0.00,Rainwise IP-100,2013-05-06 04:19:00,
2013-05-05 21:24:00,58.5,50.0,30.01,SSE,157,0.0,3.3,72,0.00,,,0.00,Rainwise IP-100,2013-05-06 04:24:00,
2013-05-05 21:29:00,58.4,49.0,30.02,SSE,157,1.6,4.7,72,0.00,,,0.00,Rainwise IP-100,2013-05-06 04:29:00,
2013-05-05 21:34:00,58.3,49.0,30.02,SE,135,2.8,3.0,72,0.00,,,0.00,Rainwise IP-100,2013-05-06 04:34:00,
2013-05-05 21:39:00,58.3,49.0,30.02,SSE,157,2.6,10.3,72,0.00,,,0.00,Rainwise IP-100,2013-05-06 04:39:00,
2013-05-05 21:44:00,58.3,49.0,30.02,SSE,157,2.3,5.6,72,0.00,,,0.00,Rainwise IP-100,2013-05-06 04:44:00,
2013-05-05 21:49:00,58.3,49.0,30.02,SW,225,7.2,7.2,72,0.00,,,0.00,Rainwise IP-100,2013-05-06 04:49:00,
2013-05-05 21:54:00,58.3,50.0,30.02,SSE,157,3.0,7.2,73,0.00,,,0.00,Rainwise IP-100,2013-05-06 04:54:00,
2013-05-05 21:59:00,58.2,50.0,30.03,SSE,157,4.2,5.4,73,0.00,,,0.00,Rainwise IP-100,2013-05-06 04:59:00,
2013-05-05 22:04:00,58.2,50.0,30.03,SSE,157,3.3,5.6,73,0.00,,,0.00,Rainwise IP-100,2013-05-06 05:04:00,
2013-05-05 22:09:00,58.2,50.0,30.03,SW,225,0.0,4.4,73,0.00,,,0.00,Rainwise IP-100,2013-05-06 05:09:00,
2013-05-05 22:14:00,58.2,50.0,30.03,SSE,157,0.0,3.7,73,0.00,,,0.00,Rainwise IP-100,2013-05-06 05:14:00,
2013-05-05 22:19:00,58.2,50.0,30.03,SSW,202,0.0,1.4,73,0.00,,,0.00,Rainwise IP-100,2013-05-06 05:19:00,
2013-05-05 22:24:00,58.1,50.0,30.03,SE,135,1.2,3.3,73,0.00,,,0.00,Rainwise IP-100,2013-05-06 05:24:00,
2013-05-05 22:29:00,58.1,50.0,30.03,SSW,202,1.2,5.8,73,0.00,,,0.00,Rainwise IP-100,2013-05-06 05:29:00,
2013-05-05 22:34:00,58.1,50.0,30.03,ESE,112,1.2,1.9,73,0.00,,,0.00,Rainwise IP-100,2013-05-06 05:34:00,
2013-05-05 22:39:00,58.1,50.0,30.03,ENE,67,0.0,1.2,73,0.00,,,0.00,Rainwise IP-100,2013-05-06 05:39:00,
2013-05-05 22:44:00,58.1,50.0,30.04,SE,135,1.9,2.6,73,0.00,,,0.00,Rainwise IP-100,2013-05-06 05:44:00,
2013-05-05 22:49:00,58.0,50.0,30.04,SE,135,3.7,11.2,74,0.00,,,0.00,Rainwise IP-100,2013-05-06 05:49:00,
2013-05-05 22:54:00,58.0,50.0,30.04,SE,135,3.7,7.5,74,0.00,,,0.00,Rainwise IP-100,2013-05-06 05:54:00,
2013-05-05 22:59:00,58.1,50.0,30.04,SSE,157,2.6,5.8,74,0.00,,,0.00,Rainwise IP-100,2013-05-06 05:59:00,
2013-05-05 23:04:00,58.1,50.0,30.04,SSW,202,3.3,7.0,74,0.00,,,0.00,Rainwise IP-100,2013-05-06 06:04:00,
2013-05-05 23:09:00,58.0,50.0,30.04,SSE,157,0.0,5.6,74,0.00,,,0.00,Rainwise IP-100,2013-05-06 06:09:00,
2013-05-05 23:14:00,58.0,50.0,30.04,SSW,202,1.4,2.8,74,0.00,,,0.00,Rainwise IP-100,2013-05-06 06:14:00,
2013-05-05 23:19:00,58.0,50.0,30.04,SW,225,5.6,6.1,74,0.00,,,0.00,Rainwise IP-100,2013-05-06 06:19:00,
2013-05-05 23:24:00,58.0,50.0,30.04,ESE,112,0.0,8.4,74,0.00,,,0.00,Rainwise IP-100,2013-05-06 06:24:00,
2013-05-05 23:29:00,57.9,50.0,30.05,SSW,202,4.2,6.3,74,0.00,,,0.00,Rainwise IP-100,2013-05-06 06:29:00,
2013-05-05 23:34:00,57.9,50.0,30.05,SE,135,2.3,5.4,74,0.00,,,0.00,Rainwise IP-100,2013-05-06 06:34:00,
2013-05-05 23:39:00,57.9,50.5,30.05,SSE,157,2.1,6.1,75,0.00,,,0.00,Rainwise IP-100,2013-05-06 06:39:00,
2013-05-05 23:44:00,57.8,50.5,30.05,SW,225,4.4,6.5,75,0.00,,,0.00,Rainwise IP-100,2013-05-06 06:44:00,
2013-05-05 23:49:00,57.7,50.0,30.05,SSE,157,4.9,8.2,75,0.00,,,0.00,Rainwise IP-100,2013-05-06 06:49:00,
2013-05-05 23:54:00,57.5,50.0,30.05,SSW,202,5.8,6.8,75,0.00,,,0.00,Rainwise IP-100,2013-05-06 06:54:00,
2013-05-05 23:59:00,57.5,50.0,30.05,SE,135,3.3,8.9,76,0.00,,,0.00,Rainwise IP-100,2013-05-06 06:59:00,